TimeCDT,TemperatureF,Dew PointF,Humidity,Sea Level PressureIn,VisibilityMPH,Wind Direction,Wind SpeedMPH,Gust SpeedMPH,PrecipitationIn,Events,Conditions,WindDirDegrees,DateUTC
12:15 AM,48.2,44.6,87,29.95,10.0,NNW,5.8,-,N/A,,Clear,340,2012-10-22 05:15:00
12:35 AM,48.2,44.6,87,29.95,10.0,North,4.6,-,N/A,,Clear,360,2012-10-22 05:35:00
12:55 AM,48.2,44.6,87,29.95,10.0,NNW,5.8,-,N/A,,Clear,340,2012-10-22 05:55:00
1:15 AM,48.2,44.6,87,29.95,10.0,NNW,9.2,-,N/A,,Clear,340,2012-10-22 06:15:00
1:35 AM,48.2,44.6,87,29.96,10.0,NNW,9.2,-,N/A,,Clear,340,2012-10-22 06:35:00
1:55 AM,46.4,44.6,93,29.95,10.0,North,11.5,-,N/A,,Clear,360,2012-10-22 06:55:00
2:15 AM,46.4,44.6,93,29.95,10.0,North,11.5,-,N/A,,Clear,350,2012-10-22 07:15:00
2:35 AM,48.2,44.6,87,29.95,10.0,North,10.4,-,N/A,,Clear,10,2012-10-22 07:35:00
2:55 AM,48.2,44.6,87,29.95,10.0,North,9.2,-,N/A,,Clear,10,2012-10-22 07:55:00
3:15 AM,46.4,44.6,93,29.95,10.0,North,9.2,-,N/A,,Clear,360,2012-10-22 08:15:00
3:55 AM,46.4,44.6,93,29.94,10.0,North,8.1,-,N/A,,Clear,10,2012-10-22 08:55:00
4:15 AM,46.4,44.6,93,29.94,10.0,NNE,9.2,-,N/A,,Clear,20,2012-10-22 09:15:00
4:35 AM,46.4,44.6,93,29.95,10.0,NNE,9.2,-,N/A,,Clear,20,2012-10-22 09:35:00
4:55 AM,46.4,44.6,93,29.95,10.0,NNE,10.4,-,N/A,,Scattered Clouds,20,2012-10-22 09:55:00
5:15 AM,46.4,44.6,93,29.95,10.0,NNE,12.7,16.1,N/A,,Overcast,20,2012-10-22 10:15:00
5:35 AM,46.4,44.6,93,29.95,10.0,NNE,12.7,17.3,N/A,,Overcast,20,2012-10-22 10:35:00
5:55 AM,48.2,44.6,87,29.96,10.0,NNE,11.5,-,N/A,,Overcast,20,2012-10-22 10:55:00
6:15 AM,48.2,44.6,87,29.96,10.0,NNE,12.7,19.6,N/A,,Overcast,20,2012-10-22 11:15:00
6:35 AM,48.2,44.6,87,29.97,10.0,NNE,12.7,18.4,N/A,,Overcast,20,2012-10-22 11:35:00
6:55 AM,48.2,44.6,87,29.98,10.0,NNE,10.4,-,N/A,,Overcast,20,2012-10-22 11:55:00
7:15 AM,48.2,44.6,87,29.98,10.0,NNE,12.7,18.4,N/A,,Overcast,20,2012-10-22 12:15:00
7:35 AM,48.2,44.6,87,29.98,10.0,NNE,10.4,-,N/A,,Overcast,20,2012-10-22 12:35:00
7:55 AM,48.2,44.6,87,29.98,10.0,North,11.5,20.7,N/A,,Overcast,10,2012-10-22 12:55:00
8:15 AM,48.2,44.6,87,29.98,10.0,NNE,13.8,18.4,N/A,,Overcast,20,2012-10-22 13:15:00
8:35 AM,48.2,44.6,87,29.99,10.0,NNE,13.8,21.9,N/A,,Overcast,30,2012-10-22 13:35:00
8:55 AM,48.2,44.6,87,29.99,10.0,NNE,12.7,18.4,N/A,,Overcast,30,2012-10-22 13:55:00
9:15 AM,48.2,44.6,87,29.99,10.0,NE,11.5,23.0,N/A,,Overcast,40,2012-10-22 14:15:00
9:35 AM,48.2,44.6,87,30.01,10.0,NE,11.5,19.6,N/A,,Overcast,40,2012-10-22 14:35:00
9:55 AM,50.0,44.6,82,30.00,10.0,NE,15.0,20.7,N/A,,Overcast,50,2012-10-22 14:55:00
10:15 AM,50.0,44.6,82,30.00,10.0,NE,16.1,20.7,N/A,,Overcast,50,2012-10-22 15:15:00
10:35 AM,50.0,44.6,82,30.00,10.0,ENE,12.7,-,N/A,,Mostly Cloudy,60,2012-10-22 15:35:00
10:55 AM,50.0,44.6,82,30.00,10.0,NE,13.8,-,N/A,,Scattered Clouds,50,2012-10-22 15:55:00
11:15 AM,51.8,44.6,76,30.00,10.0,NE,12.7,-,N/A,,Mostly Cloudy,50,2012-10-22 16:15:00
11:35 AM,51.8,44.6,76,29.99,10.0,ENE,15.0,-,N/A,,Overcast,60,2012-10-22 16:35:00
11:55 AM,53.6,44.6,72,29.99,10.0,NE,15.0,19.6,N/A,,Overcast,50,2012-10-22 16:55:00
12:15 PM,53.6,44.6,72,29.99,10.0,NE,11.5,-,N/A,,Mostly Cloudy,50,2012-10-22 17:15:00
12:35 PM,55.4,44.6,67,29.98,10.0,ENE,15.0,21.9,N/A,,Mostly Cloudy,70,2012-10-22 17:35:00
12:55 PM,53.6,44.6,72,29.97,10.0,NE,17.3,-,N/A,,Mostly Cloudy,50,2012-10-22 17:55:00
1:15 PM,55.4,44.6,67,29.97,10.0,East,15.0,19.6,N/A,,Overcast,80,2012-10-22 18:15:00
1:35 PM,55.4,44.6,67,29.95,10.0,NE,12.7,20.7,N/A,,Overcast,50,2012-10-22 18:35:00
1:55 PM,55.4,44.6,67,29.95,10.0,ENE,10.4,-,N/A,,Overcast,60,2012-10-22 18:55:00
2:15 PM,55.4,44.6,67,29.94,10.0,ENE,16.1,19.6,N/A,,Overcast,70,2012-10-22 19:15:00
2:35 PM,55.4,44.6,67,29.94,10.0,ENE,10.4,21.9,N/A,,Overcast,60,2012-10-22 19:35:00
2:55 PM,55.4,44.6,67,29.93,10.0,ENE,12.7,18.4,N/A,,Overcast,60,2012-10-22 19:55:00
3:15 PM,55.4,44.6,67,29.92,10.0,ENE,11.5,-,N/A,,Overcast,60,2012-10-22 20:15:00
3:35 PM,55.4,44.6,67,29.92,10.0,NE,12.7,-,N/A,,Overcast,50,2012-10-22 20:35:00
3:55 PM,53.6,44.6,72,29.92,10.0,NE,12.7,17.3,N/A,,Overcast,50,2012-10-22 20:55:00
4:15 PM,53.6,44.6,72,29.92,10.0,NE,11.5,17.3,N/A,,Overcast,50,2012-10-22 21:15:00
4:35 PM,53.6,42.8,67,29.92,10.0,ENE,12.7,-,N/A,,Overcast,60,2012-10-22 21:35:00
4:55 PM,53.6,42.8,67,29.91,10.0,ENE,17.3,21.9,N/A,,Overcast,60,2012-10-22 21:55:00
5:15 PM,53.6,42.8,67,29.91,10.0,ENE,16.1,21.9,N/A,,Overcast,60,2012-10-22 22:15:00
5:35 PM,53.6,42.8,67,29.92,10.0,ENE,13.8,-,N/A,,Overcast,60,2012-10-22 22:35:00
5:55 PM,51.8,42.8,71,29.92,10.0,ENE,13.8,17.3,N/A,,Overcast,60,2012-10-22 22:55:00
6:15 PM,51.8,42.8,71,29.91,10.0,ENE,15.0,-,N/A,,Overcast,60,2012-10-22 23:15:00
6:35 PM,51.8,42.8,71,29.92,10.0,ENE,12.7,19.6,N/A,,Overcast,70,2012-10-22 23:35:00
7:15 PM,51.8,42.8,71,29.92,10.0,ENE,12.7,-,N/A,,Overcast,70,2012-10-23 00:15:00
7:35 PM,50.0,42.8,76,29.92,10.0,ENE,12.7,16.1,N/A,,Overcast,70,2012-10-23 00:35:00
7:55 PM,50.0,42.8,76,29.92,10.0,ENE,9.2,-,N/A,,Overcast,60,2012-10-23 00:55:00
8:15 PM,50.0,42.8,76,29.91,10.0,ENE,12.7,-,N/A,,Overcast,60,2012-10-23 01:15:00
8:35 PM,50.0,42.8,76,29.91,10.0,ENE,12.7,19.6,N/A,,Overcast,70,2012-10-23 01:35:00
8:55 PM,50.0,42.8,76,29.90,10.0,ENE,15.0,-,N/A,,Overcast,70,2012-10-23 01:55:00
9:15 PM,50.0,42.8,76,29.90,10.0,ENE,12.7,17.3,N/A,,Overcast,70,2012-10-23 02:15:00
9:35 PM,50.0,42.8,76,29.90,10.0,East,10.4,-,N/A,,Overcast,80,2012-10-23 02:35:00
9:55 PM,50.0,42.8,76,29.90,10.0,East,11.5,17.3,N/A,,Overcast,80,2012-10-23 02:55:00
10:15 PM,50.0,42.8,76,29.90,10.0,East,11.5,-,N/A,,Overcast,80,2012-10-23 03:15:00
10:35 PM,50.0,42.8,76,29.90,10.0,ENE,11.5,16.1,N/A,,Overcast,70,2012-10-23 03:35:00
10:55 PM,50.0,42.8,76,29.89,10.0,East,10.4,-,N/A,,Overcast,80,2012-10-23 03:55:00
11:15 PM,50.0,42.8,76,29.88,10.0,East,10.4,-,N/A,,Overcast,80,2012-10-23 04:15:00
11:35 PM,50.0,42.8,76,29.87,10.0,East,12.7,18.4,N/A,,Overcast,80,2012-10-23 04:35:00